This is the latest recevied weather packets stored in our database for station/object KA1JKB. If no packets are shown the sender has not sent any weather packets the latest 10 day(s).
| Time | Temp. | Humidity | Pressure | Rain* | Wind** | Luminosity | Snow |
|---|---|---|---|---|---|---|---|
| 1777700894 | 3.33° C | 75% | 1014.4 hPa | 0 mm | - | 0 W/m² | - |
| 1777700591 | 3.33° C | 75% | 1014.3 hPa | 0 mm | - | 0 W/m² | - |
| 1777700288 | 3.89° C | 75% | 1014.3 hPa | 0 mm | - | 0 W/m² | - |
| 1777699985 | 3.89° C | 75% | 1014.1 hPa | 0 mm | - | 0 W/m² | - |
| 1777699683 | 3.89° C | 74% | 1014.6 hPa | 0 mm | - | 0 W/m² | - |
| 1777699381 | 3.89° C | 74% | 1014.4 hPa | 0 mm | - | 0 W/m² | - |
| 1777699078 | 3.89° C | 74% | 1014.3 hPa | 0 mm | - | 0 W/m² | - |
| 1777698777 | 3.89° C | 74% | 1014.2 hPa | 0 mm | - | 0 W/m² | - |
| 1777698472 | 3.89° C | 75% | 1014.4 hPa | 0 mm | - | 0 W/m² | - |
| 1777698168 | 3.89° C | 77% | 1014 hPa | 0 mm | - | 0 W/m² | - |
| 1777697563 | 3.89° C | 79% | 1014.2 hPa | 0 mm | - | 0 W/m² | - |
| 1777697259 | 3.89° C | 80% | 1014.3 hPa | 0 mm | - | 0 W/m² | - |
| 1777696956 | 3.89° C | 81% | 1014.2 hPa | 0 mm | - | 0 W/m² | - |
| 1777696653 | 3.89° C | 81% | 1014.2 hPa | 0 mm | - | 0 W/m² | - |
| 1777696351 | 3.89° C | 83% | 1014.1 hPa | 0 mm | - | 0 W/m² | - |
| 1777696050 | 3.89° C | 84% | 1014.1 hPa | 0 mm | - | 0 W/m² | - |
| 1777695748 | 3.89° C | 84% | 1014.2 hPa | 0 mm | - | 0 W/m² | - |
| 1777695445 | 3.89° C | 83% | 1014 hPa | 0 mm | - | 0 W/m² | - |
| 1777695142 | 3.89° C | 83% | 1013.9 hPa | 0 mm | - | 0 W/m² | - |
| 1777694840 | 3.89° C | 84% | 1013.9 hPa | 0 mm | - | 0 W/m² | - |
| 1777694536 | 3.89° C | 85% | 1014 hPa | 0 mm | - | 0 W/m² | - |
| 1777694232 | 3.33° C | 88% | 1013.9 hPa | 0 mm | - | 0 W/m² | - |
| 1777693929 | 3.33° C | 92% | 1013.9 hPa | 0 mm | - | 0 W/m² | - |
| 1777693627 | 2.78° C | 92% | 1013.9 hPa | 0 mm | - | 0 W/m² | - |
| 1777693325 | 2.78° C | 92% | 1013.5 hPa | 0 mm | - | 0 W/m² | - |
* Rain latest hour (hover to see other rain measurements)
** Current wind speed in m/s (hover to see current wind gust speed)